NOAA 16 DEB, 42334

Orbit data source: Space-Track

NOAA 16 DEB, 42334 is space debris in SSO originally from a launch on Thu, 21 Sep 2000 UTC launched from the Air Force Western Test Range (AFWTR). Debris objects in space refer to the collection of defunct objects orbiting the Earth. Examples of debris include non-operational satellites, rocket bodies, and fragments generated from explosions, collisions, or faulty payload assembly.

Loading next visibility...
Identifier
42334, 2000-055QA
Orbit
SSO
Country
Flag of USUS
Related business
Manufacturer
Unknown
Mission
Spacecraft
Bus & Motor
Unknown
Mass
Unknown
Launch date (UTC)
2000-09-21 (26 years ago)
Launch vehicle
Unknown
Launch site
Air Force Western Test Range (AFWTR)
Object type
Payload
Rocket body
Debris
Shape & HBR
Unknown shape, 0.1 m
Radar Cross Section
Small (<0.1 m²)

Expand to show TLE details & history
Last TLE update: 2 days ago

TLE from 2 days ago
0 NOAA 16 DEB
1 42334U 00055QA  26227.09860543  .00002429  00000-0  78946-3 0  9994
2 42334  98.8536 358.3437 0011025  31.9935 328.1919 14.39751016520321
Epoch: 2026-08-15T02:21Z
TLE epoch observation values (Epoch: 2026-08-15T02:21:59.509Z)
Latitude
-0.00003°
Longitude
-0.6686°
Altitude
755.572 km
Speed
7.48 km/s
True Right ascension
23h 53m 22s
True Declination
0° 00' 00"
Sunlit
Object was in full shadow at epoch
Visualization orbit readout
Latitude
Unknown
Longitude
Unknown
Altitude
Unknown
Speed
Unknown
Apparent Right ascension
Unknown
Apparent Declination
Unknown
Sunlit
N/A
Visualization observer readout
Local Sidereal Time
16:51:49
Azimuth
Unknown
Elevation
Unknown
Doppler factor
Unknown
Orbital elements
Apogee altitude
764.326 km
Perigee altitude
748.595 km
Semi-major axis
7,134.597 km
Eccentricity
0.0011
Inclination
98.8536°
RAAN
358.3437°
Arg. of periapsis
31.9935°
True anomaly
328.12523°
Mean anomaly
328.1919°
Eccentric anomaly
328.15857°
Mean motion
3.60155 °/min
Orbital period
99.96 mins
BSTAR
0.00078946
Loading maneuver chart data...
Computing Atmospheric mass density...
Loading historical data...
Loading historical data...
Loading historical data...
Loading historical data...
Loading historical data...
Loading historical data...
Loading historical data...

Documentation

Showing up to 5 results
|